Time,TemperatureF,DewpointF,PressureIn,WindDirection,WindDirectionDegrees,WindSpeedMPH,WindSpeedGustMPH,Humidity,HourlyPrecipIn,Conditions,Clouds,dailyrainin,SoftwareType,DateUTC
2013-05-29 00:04:00,67.7,66.8,30.05,SSW,201,0.0,2.0,97,0.00,,,0.00,WUHU216DAVISVP2,2013-05-29 04:04:00,
2013-05-29 00:09:00,67.6,66.4,30.06,North,359,0.0,2.0,96,0.00,,,0.00,WUHU216DAVISVP2,2013-05-29 04:09:00,
2013-05-29 00:14:00,67.6,66.4,30.06,ESE,108,1.0,2.0,96,0.00,,,0.00,WUHU216DAVISVP2,2013-05-29 04:14:00,
2013-05-29 00:19:00,67.6,66.4,30.06,ESE,106,1.0,2.0,96,0.00,,,0.00,WUHU216DAVISVP2,2013-05-29 04:19:00,
2013-05-29 00:24:00,67.5,66.3,30.06,ESE,106,0.0,2.0,96,0.00,,,0.00,WUHU216DAVISVP2,2013-05-29 04:24:00,
2013-05-29 00:29:00,67.4,66.2,30.06,North,359,0.0,2.0,96,0.00,,,0.00,WUHU216DAVISVP2,2013-05-29 04:29:00,
2013-05-29 00:34:00,67.3,66.1,30.06,WSW,237,0.0,2.0,96,0.00,,,0.00,WUHU216DAVISVP2,2013-05-29 04:34:00,
2013-05-29 00:39:00,67.2,66.0,30.06,SW,234,0.0,2.0,96,0.00,,,0.00,WUHU216DAVISVP2,2013-05-29 04:39:00,
2013-05-29 00:44:00,67.1,65.9,30.06,North,359,0.0,2.0,96,0.00,,,0.00,WUHU216DAVISVP2,2013-05-29 04:44:00,
2013-05-29 00:49:00,67.0,65.8,30.06,SSW,210,0.0,2.0,96,0.00,,,0.00,WUHU216DAVISVP2,2013-05-29 04:49:00,
2013-05-29 00:54:00,67.0,65.8,30.06,SSW,208,0.0,2.0,96,0.00,,,0.00,WUHU216DAVISVP2,2013-05-29 04:54:00,
2013-05-29 00:59:00,66.9,65.7,30.06,SSW,208,0.0,2.0,96,0.00,,,0.00,WUHU216DAVISVP2,2013-05-29 04:59:00,
2013-05-29 01:04:00,66.9,65.7,30.06,SSW,210,0.0,2.0,96,0.00,,,0.00,WUHU216DAVISVP2,2013-05-29 05:04:00,
2013-05-29 01:09:00,66.8,65.6,30.06,North,359,0.0,1.0,96,0.00,,,0.00,WUHU216DAVISVP2,2013-05-29 05:09:00,
2013-05-29 01:14:00,66.8,65.6,30.06,SW,228,0.0,1.0,96,0.00,,,0.00,WUHU216DAVISVP2,2013-05-29 05:14:00,
2013-05-29 01:19:00,66.8,65.6,30.05,SW,228,0.0,1.0,96,0.00,,,0.00,WUHU216DAVISVP2,2013-05-29 05:19:00,
2013-05-29 01:24:00,66.8,65.6,30.06,SW,228,0.0,1.0,96,0.00,,,0.00,WUHU216DAVISVP2,2013-05-29 05:24:00,
2013-05-29 01:29:00,66.7,65.5,30.06,North,359,0.0,1.0,96,0.00,,,0.00,WUHU216DAVISVP2,2013-05-29 05:29:00,
2013-05-29 01:34:00,66.6,65.4,30.06,North,359,0.0,0.0,96,0.00,,,0.00,WUHU216DAVISVP2,2013-05-29 05:34:00,
2013-05-29 01:39:00,66.5,65.3,30.05,SW,228,0.0,0.0,96,0.00,,,0.00,WUHU216DAVISVP2,2013-05-29 05:39:00,
2013-05-29 01:44:00,66.5,65.3,30.05,SW,229,0.0,0.0,96,0.00,,,0.00,WUHU216DAVISVP2,2013-05-29 05:44:00,
2013-05-29 01:49:00,66.5,65.3,30.05,SW,228,0.0,0.0,96,0.00,,,0.00,WUHU216DAVISVP2,2013-05-29 05:49:00,
2013-05-29 01:54:00,66.4,65.2,30.05,SW,228,0.0,0.0,96,0.00,,,0.00,WUHU216DAVISVP2,2013-05-29 05:54:00,
2013-05-29 01:59:00,66.3,65.1,30.05,SW,230,0.0,0.0,96,0.00,,,0.00,WUHU216DAVISVP2,2013-05-29 05:59:00,
2013-05-29 02:04:00,66.2,65.0,30.05,SW,231,0.0,0.0,96,0.00,,,0.00,WUHU216DAVISVP2,2013-05-29 06:04:00,
2013-05-29 02:09:00,66.1,64.9,30.05,SW,231,0.0,0.0,96,0.00,,,0.00,WUHU216DAVISVP2,2013-05-29 06:09:00,
2013-05-29 02:14:00,66.1,64.9,30.05,North,359,0.0,0.0,96,0.00,,,0.00,WUHU216DAVISVP2,2013-05-29 06:14:00,
2013-05-29 02:19:00,66.0,65.1,30.04,SW,228,0.0,0.0,97,0.00,,,0.00,WUHU216DAVISVP2,2013-05-29 06:19:00,
2013-05-29 02:24:00,66.0,65.1,30.04,SW,231,0.0,0.0,97,0.00,,,0.00,WUHU216DAVISVP2,2013-05-29 06:24:00,
2013-05-29 02:29:00,66.0,65.1,30.04,North,359,0.0,0.0,97,0.00,,,0.00,WUHU216DAVISVP2,2013-05-29 06:29:00,
2013-05-29 02:34:00,65.9,65.0,30.04,SW,230,0.0,0.0,97,0.00,,,0.00,WUHU216DAVISVP2,2013-05-29 06:34:00,
2013-05-29 02:39:00,65.9,65.0,30.04,SW,228,0.0,0.0,97,0.00,,,0.00,WUHU216DAVISVP2,2013-05-29 06:39:00,
2013-05-29 02:44:00,65.9,65.0,30.04,North,359,0.0,0.0,97,0.00,,,0.00,WUHU216DAVISVP2,2013-05-29 06:44:00,
2013-05-29 02:49:00,65.8,64.9,30.04,SW,228,0.0,0.0,97,0.00,,,0.00,WUHU216DAVISVP2,2013-05-29 06:49:00,
2013-05-29 02:54:00,65.8,64.9,30.03,SW,231,0.0,0.0,97,0.00,,,0.00,WUHU216DAVISVP2,2013-05-29 06:54:00,
2013-05-29 02:59:00,65.8,64.9,30.03,North,359,0.0,0.0,97,0.00,,,0.00,WUHU216DAVISVP2,2013-05-29 06:59:00,
2013-05-29 03:04:00,65.8,64.9,30.03,North,359,0.0,1.0,97,0.00,,,0.00,WUHU216DAVISVP2,2013-05-29 07:04:00,
2013-05-29 03:09:00,65.8,64.9,30.03,SW,230,0.0,1.0,97,0.00,,,0.00,WUHU216DAVISVP2,2013-05-29 07:09:00,
2013-05-29 03:14:00,65.8,64.9,30.04,North,359,0.0,1.0,97,0.00,,,0.00,WUHU216DAVISVP2,2013-05-29 07:14:00,
2013-05-29 03:19:00,65.9,65.3,30.03,SW,233,0.0,1.0,98,0.00,,,0.00,WUHU216DAVISVP2,2013-05-29 07:19:00,
2013-05-29 03:24:00,66.0,65.4,30.03,SW,232,0.0,2.0,98,0.00,,,0.00,WUHU216DAVISVP2,2013-05-29 07:24:00,
2013-05-29 03:29:00,66.1,65.5,30.03,North,359,0.0,2.0,98,0.00,,,0.00,WUHU216DAVISVP2,2013-05-29 07:29:00,
2013-05-29 03:34:00,66.1,65.2,30.03,North,359,0.0,2.0,97,0.00,,,0.00,WUHU216DAVISVP2,2013-05-29 07:34:00,
2013-05-29 03:39:00,66.1,65.5,30.03,West,276,0.0,2.0,98,0.00,,,0.00,WUHU216DAVISVP2,2013-05-29 07:39:00,
2013-05-29 03:44:00,66.2,65.3,30.03,West,279,0.0,1.0,97,0.00,,,0.00,WUHU216DAVISVP2,2013-05-29 07:44:00,
2013-05-29 03:49:00,66.2,65.3,30.03,North,359,0.0,1.0,97,0.00,,,0.00,WUHU216DAVISVP2,2013-05-29 07:49:00,
2013-05-29 03:54:00,66.2,65.3,30.03,North,359,0.0,2.0,97,0.00,,,0.00,WUHU216DAVISVP2,2013-05-29 07:54:00,
2013-05-29 03:59:00,66.3,65.4,30.03,West,266,0.0,2.0,97,0.00,,,0.00,WUHU216DAVISVP2,2013-05-29 07:59:00,
2013-05-29 04:04:00,66.4,65.5,30.04,North,359,0.0,2.0,97,0.00,,,0.00,WUHU216DAVISVP2,2013-05-29 08:04:00,
2013-05-29 04:09:00,66.5,65.9,30.04,West,266,0.0,2.0,98,0.00,,,0.00,WUHU216DAVISVP2,2013-05-29 08:09:00,
2013-05-29 04:14:00,66.7,65.8,30.04,North,359,0.0,1.0,97,0.00,,,0.00,WUHU216DAVISVP2,2013-05-29 08:14:00,
2013-05-29 04:19:00,66.7,65.8,30.04,North,359,0.0,1.0,97,0.00,,,0.00,WUHU216DAVISVP2,2013-05-29 08:19:00,
2013-05-29 04:24:00,66.8,65.9,30.04,North,359,0.0,2.0,97,0.00,,,0.00,WUHU216DAVISVP2,2013-05-29 08:24:00,
2013-05-29 04:29:00,67.0,66.1,30.03,South,187,0.0,2.0,97,0.00,,,0.00,WUHU216DAVISVP2,2013-05-29 08:29:00,
2013-05-29 04:34:00,67.2,66.0,30.03,SW,218,0.0,2.0,96,0.00,,,0.00,WUHU216DAVISVP2,2013-05-29 08:34:00,
2013-05-29 04:39:00,67.3,65.8,30.03,North,359,0.0,3.0,95,0.00,,,0.00,WUHU216DAVISVP2,2013-05-29 08:39:00,
2013-05-29 04:44:00,67.4,65.9,30.03,SSW,203,1.0,3.0,95,0.00,,,0.00,WUHU216DAVISVP2,2013-05-29 08:44:00,
2013-05-29 04:49:00,67.4,65.9,30.04,SSW,206,0.0,3.0,95,0.00,,,0.00,WUHU216DAVISVP2,2013-05-29 08:49:00,
2013-05-29 04:54:00,67.5,66.0,30.04,SSW,203,0.0,3.0,95,0.00,,,0.00,WUHU216DAVISVP2,2013-05-29 08:54:00,
2013-05-29 04:59:00,67.5,65.7,30.03,North,359,0.0,2.0,94,0.00,,,0.00,WUHU216DAVISVP2,2013-05-29 08:59:00,
2013-05-29 05:04:00,67.5,65.7,30.03,SW,231,0.0,2.0,94,0.00,,,0.00,WUHU216DAVISVP2,2013-05-29 09:04:00,
2013-05-29 05:09:00,67.5,65.7,30.03,North,359,0.0,2.0,94,0.00,,,0.00,WUHU216DAVISVP2,2013-05-29 09:09:00,
2013-05-29 05:14:00,67.4,65.6,30.04,SSW,211,1.0,2.0,94,0.00,,,0.00,WUHU216DAVISVP2,2013-05-29 09:14:00,
2013-05-29 05:19:00,67.4,65.6,30.04,North,359,1.0,2.0,94,0.00,,,0.00,WUHU216DAVISVP2,2013-05-29 09:19:00,
2013-05-29 05:24:00,67.4,65.6,30.04,North,359,0.0,2.0,94,0.00,,,0.00,WUHU216DAVISVP2,2013-05-29 09:24:00,
2013-05-29 05:29:00,67.4,65.6,30.03,SW,228,0.0,2.0,94,0.00,,,0.00,WUHU216DAVISVP2,2013-05-29 09:29:00,
2013-05-29 05:34:00,67.3,65.5,30.03,North,359,0.0,1.0,94,0.00,,,0.00,WUHU216DAVISVP2,2013-05-29 09:34:00,
2013-05-29 05:39:00,67.3,65.5,30.03,SW,226,0.0,2.0,94,0.00,,,0.00,WUHU216DAVISVP2,2013-05-29 09:39:00,
2013-05-29 05:44:00,67.3,65.5,30.03,SW,226,0.0,2.0,94,0.00,,,0.00,WUHU216DAVISVP2,2013-05-29 09:44:00,
2013-05-29 05:49:00,67.4,65.6,30.04,North,359,0.0,2.0,94,0.00,,,0.00,WUHU216DAVISVP2,2013-05-29 09:49:00,
2013-05-29 05:54:00,67.5,65.7,30.04,SW,225,0.0,2.0,94,0.00,,,0.00,WUHU216DAVISVP2,2013-05-29 09:54:00,
2013-05-29 05:59:00,67.6,65.5,30.04,SW,225,0.0,2.0,93,0.00,,,0.00,WUHU216DAVISVP2,2013-05-29 09:59:00,
2013-05-29 06:04:00,67.6,65.5,30.04,SW,225,0.0,2.0,93,0.00,,,0.00,WUHU216DAVISVP2,2013-05-29 10:04:00,
2013-05-29 06:09:00,67.6,65.5,30.04,NNE,17,0.0,2.0,93,0.00,,,0.00,WUHU216DAVISVP2,2013-05-29 10:09:00,
2013-05-29 06:14:00,67.6,65.8,30.04,North,359,3.0,3.0,94,0.00,,,0.00,WUHU216DAVISVP2,2013-05-29 10:14:00,
2013-05-29 06:19:00,67.7,65.6,30.04,SW,224,0.0,3.0,93,0.00,,,0.00,WUHU216DAVISVP2,2013-05-29 10:19:00,
2013-05-29 06:24:00,67.9,65.8,30.05,SSW,202,1.0,7.0,93,0.00,,,0.00,WUHU216DAVISVP2,2013-05-29 10:24:00,
2013-05-29 06:29:00,68.1,66.0,30.05,SSW,201,1.0,7.0,93,0.00,,,0.00,WUHU216DAVISVP2,2013-05-29 10:29:00,
2013-05-29 06:34:00,68.2,66.1,30.05,SW,235,0.0,7.0,93,0.00,,,0.00,WUHU216DAVISVP2,2013-05-29 10:34:00,
2013-05-29 06:39:00,68.3,65.9,30.05,North,359,1.0,7.0,92,0.00,,,0.00,WUHU216DAVISVP2,2013-05-29 10:39:00,
2013-05-29 06:44:00,68.3,65.9,30.06,North,359,0.0,4.0,92,0.00,,,0.00,WUHU216DAVISVP2,2013-05-29 10:44:00,
2013-05-29 06:49:00,68.4,66.0,30.06,South,190,0.0,4.0,92,0.00,,,0.00,WUHU216DAVISVP2,2013-05-29 10:49:00,
2013-05-29 06:54:00,68.5,66.1,30.06,WSW,241,0.0,4.0,92,0.00,,,0.00,WUHU216DAVISVP2,2013-05-29 10:54:00,
2013-05-29 06:59:00,68.6,66.2,30.06,WSW,258,2.0,4.0,92,0.00,,,0.00,WUHU216DAVISVP2,2013-05-29 10:59:00,
2013-05-29 07:04:00,68.7,66.3,30.05,North,359,0.0,7.0,92,0.00,,,0.00,WUHU216DAVISVP2,2013-05-29 11:04:00,
2013-05-29 07:09:00,69.0,66.6,30.05,SSW,207,0.0,7.0,92,0.00,,,0.00,WUHU216DAVISVP2,2013-05-29 11:09:00,
2013-05-29 07:14:00,69.2,66.7,30.05,SSW,210,1.0,7.0,92,0.00,,,0.00,WUHU216DAVISVP2,2013-05-29 11:14:00,
2013-05-29 07:19:00,69.5,67.0,30.05,SSW,195,0.0,7.0,92,0.00,,,0.00,WUHU216DAVISVP2,2013-05-29 11:19:00,
2013-05-29 07:24:00,69.7,66.9,30.05,SW,223,0.0,4.0,91,0.00,,,0.00,WUHU216DAVISVP2,2013-05-29 11:24:00,
2013-05-29 07:29:00,69.9,67.1,30.05,SW,222,0.0,4.0,91,0.00,,,0.00,WUHU216DAVISVP2,2013-05-29 11:29:00,
2013-05-29 07:34:00,70.2,67.1,30.05,SSW,210,1.0,6.0,90,0.00,,,0.00,WUHU216DAVISVP2,2013-05-29 11:34:00,
2013-05-29 07:39:00,70.5,67.4,30.05,SSW,209,0.0,6.0,90,0.00,,,0.00,WUHU216DAVISVP2,2013-05-29 11:39:00,
2013-05-29 07:44:00,70.7,67.3,30.05,WSW,240,2.0,6.0,89,0.00,,,0.00,WUHU216DAVISVP2,2013-05-29 11:44:00,
2013-05-29 07:49:00,71.0,67.6,30.05,SSW,212,0.0,6.0,89,0.00,,,0.00,WUHU216DAVISVP2,2013-05-29 11:49:00,
2013-05-29 07:54:00,71.2,67.8,30.05,SW,219,0.0,5.0,89,0.00,,,0.00,WUHU216DAVISVP2,2013-05-29 11:54:00,
2013-05-29 07:59:00,71.6,67.9,30.06,SW,222,1.0,5.0,88,0.00,,,0.00,WUHU216DAVISVP2,2013-05-29 11:59:00,
2013-05-29 08:04:00,71.9,68.2,30.06,WSW,249,0.0,3.0,88,0.00,,,0.00,WUHU216DAVISVP2,2013-05-29 12:04:00,
2013-05-29 08:09:00,72.2,68.1,30.06,SW,224,3.0,3.0,87,0.00,,,0.00,WUHU216DAVISVP2,2013-05-29 12:09:00,
2013-05-29 08:14:00,72.6,68.5,30.06,SW,224,4.0,4.0,87,0.00,,,0.00,WUHU216DAVISVP2,2013-05-29 12:14:00,
2013-05-29 08:19:00,72.9,68.5,30.06,SW,214,2.0,5.0,86,0.00,,,0.00,WUHU216DAVISVP2,2013-05-29 12:19:00,
2013-05-29 08:24:00,73.3,68.9,30.06,SW,224,1.0,5.0,86,0.00,,,0.00,WUHU216DAVISVP2,2013-05-29 12:24:00,
2013-05-29 08:29:00,73.7,68.9,30.06,WSW,237,4.0,5.0,85,0.00,,,0.00,WUHU216DAVISVP2,2013-05-29 12:29:00,
2013-05-29 08:34:00,74.0,68.9,30.06,SW,217,2.0,5.0,84,0.00,,,0.00,WUHU216DAVISVP2,2013-05-29 12:34:00,
2013-05-29 08:39:00,74.4,69.3,30.07,WSW,237,0.0,4.0,84,0.00,,,0.00,WUHU216DAVISVP2,2013-05-29 12:39:00,
2013-05-29 08:44:00,74.8,69.3,30.07,SSW,204,0.0,4.0,83,0.00,,,0.00,WUHU216DAVISVP2,2013-05-29 12:44:00,
2013-05-29 08:49:00,75.3,69.8,30.07,WSW,241,1.0,3.0,83,0.00,,,0.00,WUHU216DAVISVP2,2013-05-29 12:49:00,
2013-05-29 08:54:00,75.8,69.6,30.08,SW,216,0.0,3.0,81,0.00,,,0.00,WUHU216DAVISVP2,2013-05-29 12:54:00,
2013-05-29 08:59:00,76.4,70.2,30.08,NNE,24,0.0,4.0,81,0.00,,,0.00,WUHU216DAVISVP2,2013-05-29 12:59:00,
2013-05-29 09:04:00,77.0,70.5,30.08,WSW,253,0.0,4.0,80,0.00,,,0.00,WUHU216DAVISVP2,2013-05-29 13:04:00,
2013-05-29 09:09:00,77.5,70.1,30.08,SSW,208,2.0,4.0,78,0.00,,,0.00,WUHU216DAVISVP2,2013-05-29 13:09:00,
2013-05-29 09:14:00,77.6,70.2,30.08,ENE,61,0.0,4.0,78,0.00,,,0.00,WUHU216DAVISVP2,2013-05-29 13:14:00,
2013-05-29 09:19:00,78.2,70.5,30.08,SW,217,2.0,4.0,77,0.00,,,0.00,WUHU216DAVISVP2,2013-05-29 13:19:00,
2013-05-29 09:24:00,78.7,70.3,30.08,SW,216,0.0,4.0,75,0.00,,,0.00,WUHU216DAVISVP2,2013-05-29 13:24:00,
2013-05-29 09:29:00,79.0,70.2,30.07,SSW,206,1.0,3.0,74,0.00,,,0.00,WUHU216DAVISVP2,2013-05-29 13:29:00,
2013-05-29 09:34:00,79.2,70.4,30.07,SW,226,2.0,3.0,74,0.00,,,0.00,WUHU216DAVISVP2,2013-05-29 13:34:00,
2013-05-29 09:39:00,79.4,70.2,30.07,SW,225,1.0,3.0,73,0.00,,,0.00,WUHU216DAVISVP2,2013-05-29 13:39:00,
2013-05-29 09:44:00,79.9,71.1,30.07,SW,225,0.0,3.0,74,0.00,,,0.00,WUHU216DAVISVP2,2013-05-29 13:44:00,
2013-05-29 09:49:00,80.5,70.9,30.07,SW,217,0.0,2.0,72,0.00,,,0.00,WUHU216DAVISVP2,2013-05-29 13:49:00,
2013-05-29 09:54:00,81.0,71.1,30.07,SW,224,1.0,2.0,72,0.00,,,0.00,WUHU216DAVISVP2,2013-05-29 13:54:00,
2013-05-29 09:59:00,81.7,72.0,30.07,South,176,0.0,2.0,72,0.00,,,0.00,WUHU216DAVISVP2,2013-05-29 13:59:00,
2013-05-29 10:04:00,82.1,71.6,30.07,SSW,210,0.0,3.0,70,0.00,,,0.00,WUHU216DAVISVP2,2013-05-29 14:04:00,
2013-05-29 10:09:00,82.3,71.4,30.07,South,185,1.0,3.0,69,0.00,,,0.00,WUHU216DAVISVP2,2013-05-29 14:09:00,
2013-05-29 10:14:00,82.7,71.1,30.07,SSW,203,1.0,3.0,68,0.00,,,0.00,WUHU216DAVISVP2,2013-05-29 14:14:00,
2013-05-29 10:19:00,83.4,72.0,30.07,SSW,213,0.0,4.0,68,0.00,,,0.00,WUHU216DAVISVP2,2013-05-29 14:19:00,
2013-05-29 10:24:00,83.9,71.6,30.07,SW,231,1.0,4.0,66,0.00,,,0.00,WUHU216DAVISVP2,2013-05-29 14:24:00,
2013-05-29 10:29:00,84.7,72.4,30.07,NNW,332,0.0,4.0,66,0.00,,,0.00,WUHU216DAVISVP2,2013-05-29 14:29:00,
2013-05-29 10:34:00,85.5,71.9,30.07,WSW,239,0.0,3.0,64,0.00,,,0.00,WUHU216DAVISVP2,2013-05-29 14:34:00,
2013-05-29 10:39:00,85.6,71.4,30.07,SSW,192,1.0,3.0,62,0.00,,,0.00,WUHU216DAVISVP2,2013-05-29 14:39:00,
2013-05-29 10:44:00,85.2,71.5,30.07,SSW,197,0.0,3.0,63,0.00,,,0.00,WUHU216DAVISVP2,2013-05-29 14:44:00,
2013-05-29 10:49:00,84.7,71.4,30.07,SSW,196,0.0,3.0,64,0.00,,,0.00,WUHU216DAVISVP2,2013-05-29 14:49:00,
2013-05-29 10:54:00,84.7,71.9,30.07,SW,233,1.0,2.0,65,0.00,,,0.00,WUHU216DAVISVP2,2013-05-29 14:54:00,
2013-05-29 10:59:00,84.5,70.8,30.07,SSW,204,1.0,2.0,63,0.00,,,0.00,WUHU216DAVISVP2,2013-05-29 14:59:00,
2013-05-29 11:04:00,84.6,71.8,30.08,NNW,346,0.0,2.0,65,0.00,,,0.00,WUHU216DAVISVP2,2013-05-29 15:04:00,
2013-05-29 11:09:00,85.0,71.3,30.08,WSW,237,0.0,3.0,63,0.00,,,0.00,WUHU216DAVISVP2,2013-05-29 15:09:00,
2013-05-29 11:14:00,85.4,71.6,30.08,WSW,238,0.0,3.0,63,0.00,,,0.00,WUHU216DAVISVP2,2013-05-29 15:14:00,
2013-05-29 11:20:00,85.5,71.3,30.08,WSW,243,0.0,3.0,62,0.00,,,0.00,WUHU216DAVISVP2,2013-05-29 15:20:00,
2013-05-29 11:25:00,85.5,72.7,30.08,WSW,243,0.0,3.0,65,0.00,,,0.00,WUHU216DAVISVP2,2013-05-29 15:25:00,
2013-05-29 11:30:00,85.7,71.5,30.08,WSW,241,0.0,2.0,62,0.00,,,0.00,WUHU216DAVISVP2,2013-05-29 15:30:00,
2013-05-29 11:35:00,85.8,71.6,30.08,WSW,241,0.0,3.0,62,0.00,,,0.00,WUHU216DAVISVP2,2013-05-29 15:35:00,
2013-05-29 11:40:00,85.5,71.7,30.08,SW,229,0.0,3.0,63,0.00,,,0.00,WUHU216DAVISVP2,2013-05-29 15:40:00,
2013-05-29 11:45:00,85.1,71.8,30.08,SW,229,0.0,3.0,64,0.00,,,0.00,WUHU216DAVISVP2,2013-05-29 15:45:00,
2013-05-29 11:50:00,85.3,71.7,30.08,SW,231,0.0,2.0,64,0.00,,,0.00,WUHU216DAVISVP2,2013-05-29 15:50:00,
2013-05-29 11:55:00,85.3,72.2,30.08,SW,231,0.0,2.0,65,0.00,,,0.00,WUHU216DAVISVP2,2013-05-29 15:55:00,
2013-05-29 12:00:00,85.3,71.6,30.08,SW,231,1.0,1.0,63,0.00,,,0.00,WUHU216DAVISVP2,2013-05-29 16:00:00,
2013-05-29 12:05:00,85.2,71.2,30.08,SSW,213,0.0,1.0,63,0.00,,,0.00,WUHU216DAVISVP2,2013-05-29 16:05:00,
2013-05-29 12:10:00,84.7,71.9,30.08,NNW,336,1.0,2.0,65,0.00,,,0.00,WUHU216DAVISVP2,2013-05-29 16:10:00,
2013-05-29 12:15:00,83.6,72.2,30.08,North,354,0.0,2.0,68,0.00,,,0.00,WUHU216DAVISVP2,2013-05-29 16:15:00,
2013-05-29 12:20:00,82.8,72.3,30.08,NNE,17,0.0,2.0,70,0.00,,,0.00,WUHU216DAVISVP2,2013-05-29 16:20:00,
2013-05-29 12:25:00,82.1,71.8,30.08,NNE,17,2.0,3.0,71,0.00,,,0.00,WUHU216DAVISVP2,2013-05-29 16:25:00,
2013-05-29 12:30:00,81.3,71.4,30.08,NE,48,0.0,3.0,72,0.00,,,0.00,WUHU216DAVISVP2,2013-05-29 16:30:00,
2013-05-29 12:35:00,80.7,71.4,30.08,NE,55,0.0,3.0,73,0.00,,,0.00,WUHU216DAVISVP2,2013-05-29 16:35:00,
2013-05-29 12:40:00,80.1,71.3,30.08,ENE,57,1.0,4.0,74,0.00,,,0.00,WUHU216DAVISVP2,2013-05-29 16:40:00,
2013-05-29 12:45:00,79.4,71.0,30.08,East,82,0.0,4.0,75,0.00,,,0.00,WUHU216DAVISVP2,2013-05-29 16:45:00,
2013-05-29 12:50:00,79.3,71.5,30.08,ENE,66,1.0,4.0,77,0.00,,,0.00,WUHU216DAVISVP2,2013-05-29 16:50:00,
2013-05-29 12:55:00,79.6,71.5,30.08,ENE,66,1.0,4.0,76,0.00,,,0.00,WUHU216DAVISVP2,2013-05-29 16:55:00,
2013-05-29 13:00:00,79.8,71.7,30.07,East,81,0.0,3.0,76,0.00,,,0.00,WUHU216DAVISVP2,2013-05-29 17:00:00,
2013-05-29 13:05:00,80.1,71.3,30.08,NE,48,0.0,3.0,74,0.00,,,0.00,WUHU216DAVISVP2,2013-05-29 17:05:00,
2013-05-29 13:10:00,80.1,71.6,30.07,ENE,64,1.0,4.0,75,0.00,,,0.00,WUHU216DAVISVP2,2013-05-29 17:10:00,
2013-05-29 13:15:00,80.3,72.2,30.07,East,82,0.0,4.0,76,0.00,,,0.00,WUHU216DAVISVP2,2013-05-29 17:15:00,
2013-05-29 13:20:00,80.1,71.3,30.07,East,89,2.0,4.0,74,0.00,,,0.00,WUHU216DAVISVP2,2013-05-29 17:20:00,
2013-05-29 13:25:00,79.7,71.1,30.07,NE,56,0.0,4.0,75,0.00,,,0.00,WUHU216DAVISVP2,2013-05-29 17:25:00,
2013-05-29 13:30:00,79.8,71.2,30.07,ENE,66,0.0,4.0,75,0.00,,,0.00,WUHU216DAVISVP2,2013-05-29 17:30:00,
2013-05-29 13:35:00,80.2,72.1,30.07,ENE,60,0.0,4.0,76,0.00,,,0.00,WUHU216DAVISVP2,2013-05-29 17:35:00,
2013-05-29 13:40:00,80.6,71.9,30.07,ENE,71,0.0,4.0,75,0.00,,,0.00,WUHU216DAVISVP2,2013-05-29 17:40:00,
2013-05-29 13:45:00,80.8,72.3,30.06,ENE,71,0.0,4.0,75,0.00,,,0.00,WUHU216DAVISVP2,2013-05-29 17:45:00,
2013-05-29 13:50:00,81.1,72.2,30.06,ENE,76,1.0,2.0,74,0.00,,,0.00,WUHU216DAVISVP2,2013-05-29 17:50:00,
2013-05-29 13:55:00,81.4,72.5,30.06,NE,47,0.0,2.0,74,0.00,,,0.00,WUHU216DAVISVP2,2013-05-29 17:55:00,
2013-05-29 14:00:00,81.9,73.0,30.06,ENE,77,0.0,2.0,74,0.00,,,0.00,WUHU216DAVISVP2,2013-05-29 18:00:00,
2013-05-29 14:05:00,83.0,73.3,30.06,NE,52,1.0,3.0,72,0.00,,,0.00,WUHU216DAVISVP2,2013-05-29 18:05:00,
2013-05-29 14:10:00,83.8,73.6,30.06,NE,49,1.0,3.0,71,0.00,,,0.00,WUHU216DAVISVP2,2013-05-29 18:10:00,
2013-05-29 14:15:00,84.0,73.0,30.06,NE,46,0.0,3.0,69,0.00,,,0.00,WUHU216DAVISVP2,2013-05-29 18:15:00,
2013-05-29 14:20:00,83.7,73.1,30.06,ENE,71,1.0,6.0,70,0.00,,,0.00,WUHU216DAVISVP2,2013-05-29 18:20:00,
2013-05-29 14:25:00,83.8,72.8,30.06,ENE,76,2.0,6.0,69,0.00,,,0.00,WUHU216DAVISVP2,2013-05-29 18:25:00,
2013-05-29 14:30:00,83.8,72.5,30.06,ENE,64,2.0,6.0,69,0.00,,,0.00,WUHU216DAVISVP2,2013-05-29 18:30:00,
2013-05-29 14:35:00,84.3,73.3,30.06,SE,146,0.0,6.0,69,0.00,,,0.00,WUHU216DAVISVP2,2013-05-29 18:35:00,
2013-05-29 14:40:00,85.4,74.8,30.06,NE,44,1.0,4.0,70,0.00,,,0.00,WUHU216DAVISVP2,2013-05-29 18:40:00,
2013-05-29 14:45:00,86.2,74.2,30.05,SSE,148,0.0,4.0,67,0.00,,,0.00,WUHU216DAVISVP2,2013-05-29 18:45:00,
2013-05-29 14:50:00,86.6,73.3,30.05,ENE,61,2.0,4.0,64,0.00,,,0.00,WUHU216DAVISVP2,2013-05-29 18:50:00,
2013-05-29 14:55:00,86.8,73.0,30.05,SSE,147,0.0,5.0,63,0.00,,,0.00,WUHU216DAVISVP2,2013-05-29 18:55:00,
2013-05-29 15:00:00,87.1,74.2,30.05,SE,145,3.0,5.0,65,0.00,,,0.00,WUHU216DAVISVP2,2013-05-29 19:00:00,
2013-05-29 15:05:00,87.4,73.5,30.05,SSE,160,0.0,5.0,63,0.00,,,0.00,WUHU216DAVISVP2,2013-05-29 19:05:00,
2013-05-29 15:10:00,87.3,73.5,30.05,East,87,1.0,5.0,63,0.00,,,0.00,WUHU216DAVISVP2,2013-05-29 19:10:00,
2013-05-29 15:15:00,87.6,73.7,30.05,SE,145,3.0,5.0,63,0.00,,,0.00,WUHU216DAVISVP2,2013-05-29 19:15:00,
2013-05-29 15:20:00,87.8,73.6,30.04,NE,41,0.0,5.0,63,0.00,,,0.00,WUHU216DAVISVP2,2013-05-29 19:20:00,
2013-05-29 15:25:00,87.7,71.1,30.05,SSE,157,0.0,5.0,58,0.00,,,0.00,WUHU216DAVISVP2,2013-05-29 19:25:00,
2013-05-29 15:30:00,87.3,72.2,30.04,SSE,162,2.0,6.0,61,0.00,,,0.00,WUHU216DAVISVP2,2013-05-29 19:30:00,
2013-05-29 15:35:00,87.0,71.9,30.04,SSE,166,0.0,6.0,61,0.00,,,0.00,WUHU216DAVISVP2,2013-05-29 19:35:00,
2013-05-29 15:40:00,87.0,70.7,30.04,SE,145,3.0,6.0,58,0.00,,,0.00,WUHU216DAVISVP2,2013-05-29 19:40:00,
2013-05-29 15:45:00,86.8,72.5,30.04,SSE,156,1.0,6.0,62,0.00,,,0.00,WUHU216DAVISVP2,2013-05-29 19:45:00,
2013-05-29 15:50:00,86.7,72.4,30.04,SSE,157,0.0,6.0,62,0.00,,,0.00,WUHU216DAVISVP2,2013-05-29 19:50:00,
2013-05-29 15:55:00,86.3,71.3,30.04,SE,140,5.0,6.0,61,0.00,,,0.00,WUHU216DAVISVP2,2013-05-29 19:55:00,
2013-05-29 16:00:00,86.4,72.8,30.04,SSE,149,0.0,6.0,64,0.00,,,0.00,WUHU216DAVISVP2,2013-05-29 20:00:00,
2013-05-29 16:05:00,86.8,71.5,30.03,SSE,152,3.0,6.0,60,0.00,,,0.00,WUHU216DAVISVP2,2013-05-29 20:05:00,
2013-05-29 16:10:00,86.7,71.4,30.03,SSE,150,1.0,6.0,60,0.00,,,0.00,WUHU216DAVISVP2,2013-05-29 20:10:00,
2013-05-29 16:15:00,86.8,72.0,30.03,SSE,161,2.0,5.0,61,0.00,,,0.00,WUHU216DAVISVP2,2013-05-29 20:15:00,
2013-05-29 16:20:00,86.6,71.3,30.03,SSE,162,0.0,5.0,60,0.00,,,0.00,WUHU216DAVISVP2,2013-05-29 20:20:00,
2013-05-29 16:25:00,86.5,72.7,30.03,SSE,162,2.0,5.0,63,0.00,,,0.00,WUHU216DAVISVP2,2013-05-29 20:25:00,
2013-05-29 16:30:00,86.1,72.3,30.03,SSE,151,4.0,5.0,63,0.00,,,0.00,WUHU216DAVISVP2,2013-05-29 20:30:00,
2013-05-29 16:35:00,85.4,71.4,30.03,SSE,149,1.0,5.0,63,0.00,,,0.00,WUHU216DAVISVP2,2013-05-29 20:35:00,
2013-05-29 16:40:00,85.0,71.0,30.03,SSE,164,1.0,5.0,63,0.00,,,0.00,WUHU216DAVISVP2,2013-05-29 20:40:00,
2013-05-29 16:45:00,84.5,71.0,30.03,South,170,2.0,5.0,64,0.00,,,0.00,WUHU216DAVISVP2,2013-05-29 20:45:00,
2013-05-29 16:50:00,84.3,71.5,30.03,SSE,158,0.0,5.0,65,0.00,,,0.00,WUHU216DAVISVP2,2013-05-29 20:50:00,
2013-05-29 16:55:00,84.3,71.5,30.03,SSE,154,1.0,5.0,65,0.00,,,0.00,WUHU216DAVISVP2,2013-05-29 20:55:00,
2013-05-29 17:00:00,84.5,71.7,30.03,SSE,154,0.0,5.0,65,0.00,,,0.00,WUHU216DAVISVP2,2013-05-29 21:00:00,
2013-05-29 17:05:00,84.4,71.6,30.03,SSE,154,0.0,5.0,65,0.00,,,0.00,WUHU216DAVISVP2,2013-05-29 21:05:00,
2013-05-29 17:10:00,84.2,71.0,30.03,SSE,162,0.0,4.0,64,0.00,,,0.00,WUHU216DAVISVP2,2013-05-29 21:10:00,
2013-05-29 17:15:00,84.1,71.3,30.03,South,185,0.0,4.0,65,0.00,,,0.00,WUHU216DAVISVP2,2013-05-29 21:15:00,
2013-05-29 17:20:00,84.1,71.3,30.03,SSE,160,1.0,4.0,65,0.00,,,0.00,WUHU216DAVISVP2,2013-05-29 21:20:00,
2013-05-29 17:25:00,84.1,71.3,30.03,SSE,161,0.0,4.0,65,0.00,,,0.00,WUHU216DAVISVP2,2013-05-29 21:25:00,
2013-05-29 17:30:00,84.3,71.1,30.03,SSE,161,1.0,4.0,64,0.00,,,0.00,WUHU216DAVISVP2,2013-05-29 21:30:00,
2013-05-29 17:35:00,84.3,71.1,30.03,South,173,2.0,3.0,64,0.00,,,0.00,WUHU216DAVISVP2,2013-05-29 21:35:00,
2013-05-29 17:40:00,84.2,71.0,30.03,SSE,166,2.0,4.0,64,0.00,,,0.00,WUHU216DAVISVP2,2013-05-29 21:40:00,
2013-05-29 17:45:00,84.0,70.3,30.03,SSE,164,0.0,6.0,63,0.00,,,0.00,WUHU216DAVISVP2,2013-05-29 21:45:00,
2013-05-29 17:50:00,83.9,70.2,30.03,SE,144,2.0,6.0,63,0.00,,,0.00,WUHU216DAVISVP2,2013-05-29 21:50:00,
2013-05-29 17:55:00,83.7,70.0,30.03,SSE,152,1.0,6.0,63,0.00,,,0.00,WUHU216DAVISVP2,2013-05-29 21:55:00,
2013-05-29 18:00:00,83.6,70.4,30.03,SSW,202,1.0,6.0,64,0.00,,,0.00,WUHU216DAVISVP2,2013-05-29 22:00:00,
2013-05-29 18:05:00,83.6,70.4,30.03,ENE,70,1.0,4.0,64,0.00,,,0.00,WUHU216DAVISVP2,2013-05-29 22:05:00,
2013-05-29 18:10:00,83.6,69.9,30.03,SSE,164,1.0,6.0,63,0.00,,,0.00,WUHU216DAVISVP2,2013-05-29 22:10:00,
2013-05-29 18:15:00,83.5,69.8,30.03,SSE,165,0.0,6.0,63,0.00,,,0.00,WUHU216DAVISVP2,2013-05-29 22:15:00,
2013-05-29 18:20:00,83.4,70.2,30.03,SSE,166,0.0,6.0,64,0.00,,,0.00,WUHU216DAVISVP2,2013-05-29 22:20:00,
2013-05-29 18:25:00,83.3,69.7,30.03,SSE,165,2.0,6.0,63,0.00,,,0.00,WUHU216DAVISVP2,2013-05-29 22:25:00,
2013-05-29 18:30:00,83.1,69.9,30.03,SSE,155,1.0,4.0,64,0.00,,,0.00,WUHU216DAVISVP2,2013-05-29 22:30:00,
2013-05-29 18:35:00,82.9,69.7,30.03,SSE,155,0.0,4.0,64,0.00,,,0.00,WUHU216DAVISVP2,2013-05-29 22:35:00,
2013-05-29 18:40:00,82.6,69.9,30.03,SSE,155,0.0,4.0,65,0.00,,,0.00,WUHU216DAVISVP2,2013-05-29 22:40:00,
2013-05-29 18:45:00,82.5,69.8,30.03,SSE,155,0.0,4.0,65,0.00,,,0.00,WUHU216DAVISVP2,2013-05-29 22:45:00,
2013-05-29 18:50:00,82.4,70.2,30.03,SSE,155,0.0,3.0,66,0.00,,,0.00,WUHU216DAVISVP2,2013-05-29 22:50:00,
2013-05-29 18:55:00,82.3,70.1,30.04,SSE,155,0.0,3.0,66,0.00,,,0.00,WUHU216DAVISVP2,2013-05-29 22:55:00,
2013-05-29 19:00:00,82.3,70.1,30.04,WSW,241,1.0,3.0,66,0.00,,,0.00,WUHU216DAVISVP2,2013-05-29 23:00:00,
2013-05-29 19:05:00,82.3,70.1,30.03,WSW,241,0.0,2.0,66,0.00,,,0.00,WUHU216DAVISVP2,2013-05-29 23:05:00,
2013-05-29 19:10:00,82.3,70.1,30.04,WSW,241,0.0,2.0,66,0.00,,,0.00,WUHU216DAVISVP2,2013-05-29 23:10:00,
2013-05-29 19:15:00,82.3,70.1,30.04,WSW,241,0.0,2.0,66,0.00,,,0.00,WUHU216DAVISVP2,2013-05-29 23:15:00,
2013-05-29 19:20:00,82.3,70.1,30.04,WSW,241,0.0,1.0,66,0.00,,,0.00,WUHU216DAVISVP2,2013-05-29 23:20:00,
2013-05-29 19:25:00,82.1,70.3,30.04,WSW,241,0.0,1.0,67,0.00,,,0.00,WUHU216DAVISVP2,2013-05-29 23:25:00,
2013-05-29 19:30:00,81.8,70.4,30.04,WSW,241,0.0,1.0,68,0.00,,,0.00,WUHU216DAVISVP2,2013-05-29 23:30:00,
2013-05-29 19:35:00,81.5,70.2,30.04,WSW,241,0.0,1.0,68,0.00,,,0.00,WUHU216DAVISVP2,2013-05-29 23:35:00,
2013-05-29 19:40:00,81.4,70.5,30.04,WSW,241,0.0,1.0,69,0.00,,,0.00,WUHU216DAVISVP2,2013-05-29 23:40:00,
2013-05-29 19:45:00,81.2,70.3,30.04,WSW,241,0.0,1.0,69,0.00,,,0.00,WUHU216DAVISVP2,2013-05-29 23:45:00,
2013-05-29 19:50:00,80.9,70.4,30.04,WSW,241,0.0,1.0,70,0.00,,,0.00,WUHU216DAVISVP2,2013-05-29 23:50:00,
2013-05-29 19:55:00,80.6,70.1,30.04,WSW,241,0.0,1.0,70,0.00,,,0.00,WUHU216DAVISVP2,2013-05-29 23:55:00,
2013-05-29 20:00:00,80.3,70.3,30.03,WSW,241,0.0,1.0,71,0.00,,,0.00,WUHU216DAVISVP2,2013-05-30 00:00:00,
2013-05-29 20:05:00,80.1,70.1,30.03,WSW,241,0.0,1.0,71,0.00,,,0.00,WUHU216DAVISVP2,2013-05-30 00:05:00,
2013-05-29 20:10:00,79.9,69.9,30.03,WSW,241,0.0,1.0,71,0.00,,,0.00,WUHU216DAVISVP2,2013-05-30 00:10:00,
2013-05-29 20:15:00,79.7,70.1,30.03,WSW,241,0.0,0.0,72,0.00,,,0.00,WUHU216DAVISVP2,2013-05-30 00:15:00,
2013-05-29 20:20:00,79.5,69.9,30.03,WSW,241,0.0,0.0,72,0.00,,,0.00,WUHU216DAVISVP2,2013-05-30 00:20:00,
2013-05-29 20:25:00,79.3,70.1,30.03,WSW,241,0.0,0.0,73,0.00,,,0.00,WUHU216DAVISVP2,2013-05-30 00:25:00,
2013-05-29 20:30:00,79.0,69.8,30.03,WSW,241,0.0,0.0,73,0.00,,,0.00,WUHU216DAVISVP2,2013-05-30 00:30:00,
2013-05-29 20:35:00,78.7,69.9,30.03,WSW,241,0.0,0.0,74,0.00,,,0.00,WUHU216DAVISVP2,2013-05-30 00:35:00,
2013-05-29 20:40:00,78.5,70.1,30.03,WSW,241,0.0,0.0,75,0.00,,,0.00,WUHU216DAVISVP2,2013-05-30 00:40:00,
2013-05-29 20:45:00,78.2,69.8,30.03,WSW,241,0.0,0.0,75,0.00,,,0.00,WUHU216DAVISVP2,2013-05-30 00:45:00,
2013-05-29 20:50:00,78.0,70.0,30.03,WSW,241,0.0,0.0,76,0.00,,,0.00,WUHU216DAVISVP2,2013-05-30 00:50:00,
2013-05-29 20:55:00,77.7,69.7,30.03,WSW,241,0.0,0.0,76,0.00,,,0.00,WUHU216DAVISVP2,2013-05-30 00:55:00,
2013-05-29 21:00:00,77.4,69.6,30.03,WSW,241,0.0,0.0,77,0.00,,,0.00,WUHU216DAVISVP2,2013-05-30 01:00:00,
2013-05-29 21:05:00,77.1,69.7,30.03,WSW,241,0.0,0.0,78,0.00,,,0.00,WUHU216DAVISVP2,2013-05-30 01:05:00,
2013-05-29 21:10:00,76.9,69.6,30.03,WSW,241,0.0,0.0,78,0.00,,,0.00,WUHU216DAVISVP2,2013-05-30 01:10:00,
2013-05-29 21:15:00,76.6,69.7,30.03,WSW,241,0.0,0.0,79,0.00,,,0.00,WUHU216DAVISVP2,2013-05-30 01:15:00,
2013-05-29 21:20:00,76.5,70.0,30.04,WSW,241,0.0,0.0,80,0.00,,,0.00,WUHU216DAVISVP2,2013-05-30 01:20:00,
2013-05-29 21:25:00,76.2,69.6,30.04,WSW,241,0.0,0.0,80,0.00,,,0.00,WUHU216DAVISVP2,2013-05-30 01:25:00,
2013-05-29 21:30:00,75.9,69.6,30.04,WSW,241,0.0,0.0,81,0.00,,,0.00,WUHU216DAVISVP2,2013-05-30 01:30:00,
2013-05-29 21:35:00,75.6,69.4,30.04,WSW,241,0.0,0.0,81,0.00,,,0.00,WUHU216DAVISVP2,2013-05-30 01:35:00,
2013-05-29 21:40:00,75.5,69.7,30.04,WSW,241,0.0,0.0,82,0.00,,,0.00,WUHU216DAVISVP2,2013-05-30 01:40:00,
2013-05-29 21:45:00,75.2,69.4,30.04,WSW,241,0.0,0.0,82,0.00,,,0.00,WUHU216DAVISVP2,2013-05-30 01:45:00,
2013-05-29 21:50:00,75.0,69.5,30.04,WSW,241,0.0,0.0,83,0.00,,,0.00,WUHU216DAVISVP2,2013-05-30 01:50:00,
2013-05-29 21:55:00,74.8,69.7,30.04,WSW,241,0.0,0.0,84,0.00,,,0.00,WUHU216DAVISVP2,2013-05-30 01:55:00,
2013-05-29 22:00:00,74.6,69.5,30.04,WSW,241,0.0,0.0,84,0.00,,,0.00,WUHU216DAVISVP2,2013-05-30 02:00:00,
2013-05-29 22:05:00,74.4,69.6,30.05,WSW,241,0.0,0.0,85,0.00,,,0.00,WUHU216DAVISVP2,2013-05-30 02:05:00,
2013-05-29 22:10:00,74.2,69.8,30.05,WSW,241,0.0,0.0,86,0.00,,,0.00,WUHU216DAVISVP2,2013-05-30 02:10:00,
2013-05-29 22:15:00,74.1,69.7,30.05,WSW,241,0.0,0.0,86,0.00,,,0.00,WUHU216DAVISVP2,2013-05-30 02:15:00,
2013-05-29 22:20:00,73.9,69.5,30.05,WSW,241,0.0,0.0,86,0.00,,,0.00,WUHU216DAVISVP2,2013-05-30 02:20:00,
2013-05-29 22:25:00,73.8,69.4,30.05,WSW,241,0.0,0.0,86,0.00,,,0.00,WUHU216DAVISVP2,2013-05-30 02:25:00,
2013-05-29 22:30:00,73.7,69.6,30.05,WSW,241,0.0,0.0,87,0.00,,,0.00,WUHU216DAVISVP2,2013-05-30 02:30:00,
2013-05-29 22:35:00,73.7,69.6,30.05,WSW,241,0.0,0.0,87,0.00,,,0.00,WUHU216DAVISVP2,2013-05-30 02:35:00,
2013-05-29 22:40:00,73.6,69.5,30.05,WSW,241,0.0,0.0,87,0.00,,,0.00,WUHU216DAVISVP2,2013-05-30 02:40:00,
2013-05-29 22:45:00,73.5,69.4,30.05,WSW,241,0.0,0.0,87,0.00,,,0.00,WUHU216DAVISVP2,2013-05-30 02:45:00,
2013-05-29 22:50:00,73.5,69.4,30.05,WSW,241,0.0,0.0,87,0.00,,,0.00,WUHU216DAVISVP2,2013-05-30 02:50:00,
2013-05-29 22:55:00,73.5,69.7,30.05,WSW,241,0.0,0.0,88,0.00,,,0.00,WUHU216DAVISVP2,2013-05-30 02:55:00,
2013-05-29 23:00:00,73.5,69.4,30.06,WSW,241,0.0,0.0,87,0.00,,,0.00,WUHU216DAVISVP2,2013-05-30 03:00:00,
2013-05-29 23:05:00,73.6,68.8,30.06,WSW,241,0.0,0.0,85,0.00,,,0.00,WUHU216DAVISVP2,2013-05-30 03:05:00,
2013-05-29 23:10:00,73.8,68.7,30.06,WSW,241,0.0,0.0,84,0.00,,,0.00,WUHU216DAVISVP2,2013-05-30 03:10:00,
2013-05-29 23:15:00,74.0,68.6,30.06,WSW,241,0.0,1.0,83,0.00,,,0.00,WUHU216DAVISVP2,2013-05-30 03:15:00,
2013-05-29 23:21:00,74.3,68.2,30.06,WSW,238,1.0,1.0,81,0.00,,,0.00,WUHU216DAVISVP2,2013-05-30 03:21:00,
2013-05-29 23:26:00,74.9,68.1,30.06,WSW,238,1.0,1.0,79,0.00,,,0.00,WUHU216DAVISVP2,2013-05-30 03:26:00,
2013-05-29 23:31:00,75.4,67.8,30.06,SW,235,0.0,1.0,77,0.00,,,0.00,WUHU216DAVISVP2,2013-05-30 03:31:00,
2013-05-29 23:36:00,75.8,67.8,30.06,SW,235,0.0,1.0,76,0.00,,,0.00,WUHU216DAVISVP2,2013-05-30 03:36:00,
2013-05-29 23:41:00,76.0,68.0,30.06,SW,235,0.0,1.0,76,0.00,,,0.00,WUHU216DAVISVP2,2013-05-30 03:41:00,
2013-05-29 23:46:00,76.0,68.0,30.06,SW,235,0.0,1.0,76,0.00,,,0.00,WUHU216DAVISVP2,2013-05-30 03:46:00,
2013-05-29 23:51:00,76.0,68.0,30.06,South,188,0.0,2.0,76,0.00,,,0.00,WUHU216DAVISVP2,2013-05-30 03:51:00,
2013-05-29 23:56:00,76.1,67.8,30.06,SSW,201,1.0,3.0,75,0.00,,,0.00,WUHU216DAVISVP2,2013-05-30 03:56:00,